Previsão horária em Plesno

Hoje, 6 Março, Sábado

Tempo Temperatura Precipitação Vento Pressão Humidade
00:00 0°C° 0 mm 1 m/s 768 mmHg 67%
01:00 -2°C° 0 mm 2 m/s 769 mmHg 68%
02:00 -2°C° 0 mm 2 m/s 768 mmHg 69%
03:00 -2°C° 0 mm 2 m/s 768 mmHg 69%
04:00 -2°C° 0 mm 2 m/s 768 mmHg 70%
05:00 -2°C° 0 mm 2 m/s 768 mmHg 70%
06:00 -2°C° 0 mm 2 m/s 769 mmHg 70%
07:00 -2°C° 0 mm 2 m/s 769 mmHg 70%
08:00 -1°C° 0 mm 3 m/s 769 mmHg 64%
09:00 +1°C° 0 mm 3 m/s 769 mmHg 59%
10:00 +1°C° 0 mm 4 m/s 769 mmHg 53%
11:00 +3°C° 0 mm 4 m/s 769 mmHg 51%
12:00 +3°C° 0 mm 5 m/s 768 mmHg 50%
13:00 +5°C° 0 mm 5 m/s 768 mmHg 48%
14:00 +5°C° 0 mm 5 m/s 768 mmHg 49%
15:00 +5°C° 0 mm 4 m/s 767 mmHg 51%
16:00 +4°C° 0 mm 4 m/s 767 mmHg 52%
17:00 +3°C° 0 mm 4 m/s 767 mmHg 59%
18:00 +2°C° 0 mm 3 m/s 767 mmHg 67%
19:00 +1°C° 0 mm 3 m/s 766 mmHg 75%
20:00 +1°C° 0 mm 3 m/s 766 mmHg 78%
21:00 0°C° 0 mm 3 m/s 766 mmHg 82%
22:00 0°C° 0 mm 3 m/s 766 mmHg 85%
23:00 0°C° 0 mm 3 m/s 766 mmHg 87%

Amanhã, 7 Março, Domingo

Tempo Temperatura Precipitação Vento Pressão Humidade
00:00 0°C° 0 mm 3 m/s 766 mmHg 89%
01:00 0°C° 0 mm 3 m/s 766 mmHg 91%
02:00 0°C° 0 mm 3 m/s 765 mmHg 92%
03:00 -1°C° 0 mm 3 m/s 765 mmHg 93%
04:00 -2°C° 0 mm 4 m/s 764 mmHg 93%
05:00 -2°C° 0 mm 4 m/s 764 mmHg 93%
06:00 -3°C° 0 mm 4 m/s 764 mmHg 94%
07:00 -2°C° 0 mm 3 m/s 764 mmHg 94%
08:00 -2°C° 0 mm 4 m/s 764 mmHg 87%
09:00 -1°C° 0 mm 5 m/s 763 mmHg 80%
10:00 0°C° 0 mm 5 m/s 763 mmHg 73%
11:00 0°C° 0 mm 5 m/s 763 mmHg 72%
12:00 0°C° 0 mm 5 m/s 762 mmHg 70%
13:00 +1°C° 0 mm 5 m/s 762 mmHg 69%
14:00 +1°C° 0 mm 5 m/s 762 mmHg 68%
15:00 +1°C° 0 mm 5 m/s 761 mmHg 68%
16:00 +1°C° 0 mm 5 m/s 760 mmHg 67%
17:00 0°C° 0 mm 4 m/s 760 mmHg 70%
18:00 +1°C° 0 mm 3 m/s 760 mmHg 74%
19:00 0°C° 0 mm 3 m/s 760 mmHg 77%
20:00 0°C° 0 mm 3 m/s 760 mmHg 79%
21:00 -1°C° 0 mm 3 m/s 760 mmHg 81%
22:00 -1°C° 0 mm 3 m/s 760 mmHg 84%
23:00 -1°C° 0.2 mm 3 m/s 760 mmHg 88%

Depois de amanhã, 8 Março, Segunda-feira

Tempo Temperatura Precipitação Vento Pressão Humidade
00:00 -1°C° 0.2 mm 3 m/s 760 mmHg 92%
01:00 -2°C° 0.2 mm 4 m/s 760 mmHg 96%
02:00 -1°C° 0.3 mm 4 m/s 760 mmHg 96%
03:00 0°C° 0.3 mm 3 m/s 760 mmHg 96%
04:00 0°C° 0.3 mm 3 m/s 760 mmHg 96%
05:00 0°C° 0.2 mm 3 m/s 760 mmHg 96%
06:00 -1°C° 0.2 mm 2 m/s 760 mmHg 96%
07:00 +1°C° 0.2 mm 1 m/s 761 mmHg 95%
08:00 +2°C° 0 mm 1 m/s 761 mmHg 85%
09:00 +3°C° 0 mm 1 m/s 761 mmHg 76%
10:00 +4°C° 0 mm 1 m/s 762 mmHg 66%
11:00 +4°C° 0 mm 1 m/s 762 mmHg 59%
12:00 +5°C° 0 mm 1 m/s 762 mmHg 52%
13:00 +6°C° 0 mm 1 m/s 762 mmHg 46%
14:00 +6°C° 0 mm 1 m/s 762 mmHg 45%
15:00 +6°C° 0 mm 1 m/s 761 mmHg 44%
16:00 +6°C° 0 mm 1 m/s 761 mmHg 44%
17:00 +4°C° 0 mm 1 m/s 761 mmHg 49%
18:00 +3°C° 0 mm 1 m/s 762 mmHg 55%
19:00 0°C° 0 mm 0 m/s 762 mmHg 61%
20:00 +1°C° 0 mm 1 m/s 762 mmHg 61%
21:00 +1°C° 0 mm 1 m/s 762 mmHg 62%
22:00 +1°C° 0 mm 1 m/s 762 mmHg 63%
23:00 +1°C° 0 mm 1 m/s 762 mmHg 65%

9 Março, Terça-feira

Tempo Temperatura Precipitação Vento Pressão Humidade
00:00 +1°C° 0 mm 1 m/s 762 mmHg 66%
01:00 0°C° 0 mm 1 m/s 762 mmHg 68%
02:00 0°C° 0 mm 1 m/s 761 mmHg 70%
03:00 0°C° 0 mm 1 m/s 761 mmHg 72%
04:00 0°C° 0 mm 1 m/s 761 mmHg 74%
05:00 0°C° 0 mm 1 m/s 761 mmHg 75%
06:00 -1°C° 0 mm 2 m/s 760 mmHg 77%
07:00 -1°C° 0 mm 2 m/s 760 mmHg 78%
08:00 +1°C° 0 mm 2 m/s 760 mmHg 74%
09:00 +2°C° 0 mm 2 m/s 760 mmHg 69%
10:00 +3°C° 0 mm 2 m/s 760 mmHg 65%
11:00 +4°C° 0 mm 2 m/s 760 mmHg 65%
12:00 +5°C° 0 mm 2 m/s 760 mmHg 64%
13:00 +5°C° 0 mm 2 m/s 760 mmHg 64%
14:00 +5°C° 0.1 mm 2 m/s 760 mmHg 69%
15:00 +5°C° 0.1 mm 2 m/s 759 mmHg 74%
16:00 +5°C° 0.1 mm 2 m/s 759 mmHg 79%
17:00 +4°C° 0 mm 2 m/s 759 mmHg 83%
18:00 +3°C° 0 mm 2 m/s 759 mmHg 87%
19:00 +2°C° 0 mm 2 m/s 760 mmHg 90%
20:00 +2°C° 0 mm 2 m/s 760 mmHg 92%
21:00 +2°C° 0 mm 2 m/s 760 mmHg 94%
22:00 +2°C° 0 mm 2 m/s 760 mmHg 95%
23:00 +2°C° 0 mm 2 m/s 760 mmHg 95%

10 Março, Quarta-feira

Tempo Temperatura Precipitação Vento Pressão Humidade
00:00 +1°C° 0 mm 3 m/s 760 mmHg 95%
01:00 +2°C° 0 mm 3 m/s 760 mmHg 95%
02:00 +2°C° 0.1 mm 3 m/s 760 mmHg 95%
03:00 +2°C° 0.1 mm 3 m/s 759 mmHg 95%
04:00 +2°C° 0.1 mm 3 m/s 759 mmHg 95%
05:00 +2°C° 0.1 mm 3 m/s 759 mmHg 94%
06:00 +2°C° 0.1 mm 3 m/s 760 mmHg 93%
07:00 +2°C° 0.1 mm 3 m/s 760 mmHg 92%
08:00 +3°C° 0 mm 3 m/s 760 mmHg 89%
09:00 +4°C° 0 mm 3 m/s 760 mmHg 85%
10:00 +4°C° 0 mm 3 m/s 760 mmHg 82%
11:00 +5°C° 0 mm 3 m/s 760 mmHg 76%
12:00 +6°C° 0 mm 4 m/s 760 mmHg 71%
13:00 +8°C° 0 mm 4 m/s 759 mmHg 65%
14:00 +8°C° 0 mm 4 m/s 759 mmHg 64%
15:00 +8°C° 0 mm 4 m/s 759 mmHg 62%
16:00 +9°C° 0 mm 3 m/s 758 mmHg 61%
17:00 +8°C° 0 mm 3 m/s 758 mmHg 65%
18:00 +7°C° 0 mm 3 m/s 758 mmHg 70%
19:00 +5°C° 0 mm 3 m/s 757 mmHg 74%
20:00 +5°C° 0 mm 3 m/s 757 mmHg 72%
21:00 +5°C° 0 mm 4 m/s 757 mmHg 71%
22:00 +5°C° 0 mm 4 m/s 757 mmHg 69%
23:00 +5°C° 0 mm 4 m/s 756 mmHg 71%

11 Março, Quinta-feira

Tempo Temperatura Precipitação Vento Pressão Humidade
00:00 +5°C° 0 mm 5 m/s 755 mmHg 73%
01:00 +5°C° 0 mm 5 m/s 754 mmHg 74%
02:00 +5°C° 0.3 mm 5 m/s 754 mmHg 78%
03:00 +5°C° 0.3 mm 6 m/s 753 mmHg 81%
04:00 +5°C° 0.3 mm 6 m/s 752 mmHg 85%
05:00 +5°C° 0.2 mm 6 m/s 752 mmHg 82%
06:00 +5°C° 0.2 mm 6 m/s 751 mmHg 79%
07:00 +7°C° 0.2 mm 6 m/s 751 mmHg 76%
08:00 +6°C° 0 mm 7 m/s 751 mmHg 73%
09:00 +8°C° 0 mm 7 m/s 751 mmHg 70%
10:00 +7°C° 0 mm 8 m/s 750 mmHg 67%
11:00 +9°C° 0 mm 8 m/s 750 mmHg 68%
12:00 +9°C° 0 mm 8 m/s 750 mmHg 70%
13:00 +10°C° 0 mm 8 m/s 750 mmHg 71%
14:00 +10°C° 0.2 mm 7 m/s 751 mmHg 68%
15:00 +10°C° 0.2 mm 7 m/s 751 mmHg 65%
16:00 +10°C° 0.2 mm 7 m/s 751 mmHg 62%
17:00 +8°C° 0.1 mm 6 m/s 751 mmHg 65%
18:00 +7°C° 0.1 mm 5 m/s 752 mmHg 67%
19:00 +6°C° 0.1 mm 4 m/s 752 mmHg 70%
20:00 +6°C° 0 mm 5 m/s 753 mmHg 72%
21:00 +6°C° 0 mm 5 m/s 753 mmHg 73%
22:00 +5°C° 0 mm 5 m/s 753 mmHg 75%
23:00 +5°C° 0 mm 5 m/s 753 mmHg 77%
Mostrar mais

Necessitamos do seu Consentimento

A Meteoprog e os seus Fornecedores de Serviços podem armazenar e aceder a dados pessoais como cookies, identificadores do dispositivo ou outras tecnologias semelhantes existentes no seu dispositivo e processar estes dados para personalizar conteúdos e anúncios, assim como funcionalidades nas redes sociais e análise de tráfego.

  • Armazenar e/ou aceder a informações no seu dispositivo

    Os cookies, identificadores do dispositivo ou outras informações podem ser armazenados ou acedidos no seu dispositivo, para os fins acima indicados.

  • Anúncios e conteúdos personalizados, medição de anúncios e conteúdos, dados sobre o público-alvo e desenvolvimento de produtos

    Os anúncios e os conteúdos podem ser personalizados com base num perfil. Podem ser adicionados dados adicionais para uma maior personalização dos anúncios e dos conteúdos. A eficácia dos anúncios e dos conteúdos pode ser medida. Podem ser obtidas informações sobre o público que visualizou os anúncios e os conteúdos. Estes dados podem ser usados para desenvolver ou melhorar sistemas, softwares ou a experiência do utilizador.

Ao clicar em "Eu concordo”, permitirá o uso de cookies, identificadores do dispositivo e web beacons mencionados ou outras tecnologias semelhantes. As configurações do navegador do seu dispositivo podem ser alteradas.

Para certos fins, podem ser invocados interesses legítimos ao invés de consentimento. Pode ler mais informação sobre este assunto na nossa Política de Privacidade e Cookies.